Location: Unspecified
(22.6800°N, 112.2000°E)
Time: 18:35:26
(UTC+08:00)

Vanguard 2 Rocket - All Passes

Search period start: 03 August 2021 00:00
Search period end: 13 August 2021 00:00
Orbit: 555 x 3325 km, 32.9° (Epoch: 02 August)

Date Brightness Start Highest point End Pass type
(mag) Time Alt. Az. Time Alt. Az. Time Alt. Az.
03 Aug - 03:20:25 10° SSW 03:26:59 21° SSE 03:31:37 10° ESE visible
03 Aug - 05:34:23 10° WSW 05:40:55 82° SSE 05:45:12 10° ENE visible
03 Aug - 07:50:28 10° WNW 07:54:00 24° NNW 07:57:17 10° NE daylight
03 Aug - 10:04:22 10° NW 10:07:51 26° NNE 10:12:16 10° ENE daylight
03 Aug - 12:16:07 10° WNW 12:21:12 88° NNE 12:29:57 10° ESE daylight
03 Aug - 14:29:12 10° W 14:35:38 31° SSW 14:45:53 10° SSE daylight
04 Aug - 02:20:37 10° S 02:26:33 16° SSE 02:31:03 10° ESE visible
04 Aug - 04:33:31 10° SW 04:41:21 53° SSE 04:46:08 10° ENE visible
04 Aug - 06:49:44 10° W 06:54:27 35° NNW 06:58:09 10° NE daylight
04 Aug - 09:05:08 10° NW 09:08:10 20° N 09:11:27 10° NE daylight
04 Aug - 11:17:14 10° NW 11:21:37 57° NNE 11:28:23 10° ESE daylight
04 Aug - 13:29:34 10° W 13:35:17 41° SSW 13:44:49 10° SE daylight
04 Aug - 15:46:44 10° SW 15:51:09 13° SSW 15:56:32 10° S daylight
05 Aug - 01:21:55 10° S 01:25:40 12° SSE 01:28:55 10° SE night (unlit)
05 Aug - 03:32:35 10° SW 03:41:26 37° SSE 03:46:51 10° E visible
05 Aug - 05:48:37 10° WSW 05:55:01 58° NNW 05:59:16 10° NE daylight
05 Aug - 08:05:14 10° NW 08:08:25 20° N 08:11:26 10° NE daylight
05 Aug - 10:18:22 10° NW 10:22:08 35° NNE 10:27:06 10° E daylight
05 Aug - 12:30:19 10° WNW 12:35:19 57° SSW 12:43:41 10° SE daylight
05 Aug - 14:45:04 10° WSW 14:50:13 18° SSW 14:57:13 10° SSE daylight
06 Aug - 02:31:43 10° SSW 02:41:09 28° SSE 02:47:11 10° E visible
06 Aug - 04:47:14 10° WSW 04:55:29 89° SSE 05:00:22 10° ENE visible
06 Aug - 07:04:32 10° WNW 07:08:44 26° NNW 07:12:09 10° NE daylight
06 Aug - 09:19:19 10° NW 09:22:35 24° NNE 09:26:13 10° ENE daylight
06 Aug - 11:31:17 10° WNW 11:35:42 86° SSW 11:42:38 10° ESE daylight
06 Aug - 13:44:41 10° WSW 13:49:42 24° SSW 13:57:07 10° SSE daylight
07 Aug - 01:31:07 10° SSW 01:40:25 22° SSE 01:46:55 10° ESE visible
07 Aug - 03:45:42 10° SW 03:55:42 63° SSE 04:01:22 10° ENE visible
07 Aug - 06:03:14 10° W 06:09:08 38° NNW 06:13:14 10° NE daylight
07 Aug - 08:19:44 10° NW 08:22:54 20° N 08:25:56 10° NE daylight
07 Aug - 10:32:19 10° NW 10:36:18 57° NNE 10:41:43 10° ESE daylight
07 Aug - 12:44:56 10° W 12:49:35 32° SSW 12:56:45 10° SSE daylight
08 Aug - 00:31:06 10° S 00:39:17 17° SSE 00:45:35 10° ESE night (unlit)
08 Aug - 02:44:09 10° SW 02:55:32 46° SSE 03:02:06 10° E visible
08 Aug - 05:01:29 10° WSW 05:09:33 59° NNW 05:14:25 10° NE visible
08 Aug - 07:19:19 10° WNW 07:23:09 22° N 07:26:21 10° NE daylight
08 Aug - 09:33:17 10° NW 09:36:54 34° NNE 09:41:01 10° E daylight
08 Aug - 11:45:34 10° W 11:49:50 46° SSW 11:56:18 10° SE daylight
08 Aug - 14:01:38 10° SW 14:04:18 12° SSW 14:07:28 10° S daylight
08 Aug - 23:32:50 10° S 23:37:39 12° SSE 23:41:55 10° SE night (unlit)
09 Aug - 01:42:43 10° SSW 01:54:57 35° SSE 02:02:28 10° E visible
09 Aug - 03:59:29 10° WSW 04:09:48 86° NNW 04:15:33 10° ENE visible
09 Aug - 06:18:04 10° WNW 06:23:25 29° NNW 06:27:17 10° NE daylight
09 Aug - 08:33:54 10° NW 08:37:21 25° N 08:40:42 10° ENE daylight
09 Aug - 10:46:22 10° WNW 10:50:23 77° SSW 10:55:53 10° ESE daylight
09 Aug - 13:00:29 10° WSW 13:04:02 17° SSW 13:08:39 10° SSE daylight
10 Aug - 00:41:35 10° SSW 00:53:56 28° SSE 01:02:14 10° E visible
10 Aug - 02:57:22 10° SW 03:09:45 71° SSE 03:16:31 10° ENE visible
10 Aug - 05:16:10 10° W 05:23:42 42° NNW 05:28:25 10° NE visible
10 Aug - 07:33:50 10° NW 07:37:39 22° N 07:40:51 10° NE daylight
10 Aug - 09:47:13 10° WNW 09:51:05 60° NNE 09:55:35 10° ESE daylight
10 Aug - 12:00:23 10° W 12:04:06 24° SSW 12:09:10 10° SSE daylight
10 Aug - 23:41:04 10° S 23:52:30 21° SSE 00:01:02 10° ESE night (unlit)
11 Aug - 01:55:18 10° SW 02:09:17 54° SSE 02:17:12 10° ENE visible
11 Aug - 04:13:49 10° WSW 04:23:52 61° NNW 04:29:35 10° ENE visible
11 Aug - 06:32:50 10° WNW 06:37:50 26° N 06:41:32 10° NE daylight
11 Aug - 08:47:51 10° NW 08:51:43 36° NNE 08:55:27 10° E daylight
11 Aug - 11:00:46 10° W 11:04:31 37° SSW 11:09:28 10° SE daylight
11 Aug - 22:41:45 10° S 22:50:39 15° SSE 22:58:06 10° ESE visible
12 Aug - 00:53:28 10° SW 01:08:22 42° SSE 01:17:29 10° E visible
12 Aug - 03:11:13 10° WSW 03:23:50 83° NNW 03:30:40 10° ENE visible
12 Aug - 05:31:00 10° WNW 05:38:00 34° NNW 05:42:32 10° NE visible
12 Aug - 07:48:00 10° NW 07:52:07 28° N 07:55:34 10° ENE daylight
12 Aug - 10:01:19 10° WNW 10:05:11 67° SSW 10:09:42 10° SE daylight
12 Aug - 12:17:09 10° SW 12:18:29 11° SSW 12:19:56 10° S daylight
